Wind_Speed
22 23 23 25 25 27 28 30 29 27 25 29 29 28 27 28 27 27 25 23 20 19 18 20 19 16 15 14 14 13 13 13 9 7 3 5 5 6 5 5 4 7 9
19 22 25 24 26 28 31 32 30 29 28 29 30 27 28 28 26 27 27 21 21 21 21 20 19 16 15 13 14 13 13 11 12 6 6 5 6 8 6 4 2 4 7
27 25 24 26 28 28 32 32 32 30 30 30 28 29 31 29 27 28 23 20 22 23 23 21 19 17 16 15 15 13 14 12 11 11 7 7 5 7 5 4 4 4 6
28 27 28 27 26 29 32 32 31 31 29 30 32 32 30 28 27 24 21 22 23 23 22 20 19 18 16 16 15 14 13 12 11 11 7 9 7 7 7 7 5 6 5
28 29 29 29 29 29 31 30 30 29 32 34 33 30 28 27 25 24 24 24 23 21 21 18 16 15 16 16 16 15 13 14 14 13 10 8 9 8 11 8 7 7 5
30 31 29 28 29 28 29 29 30 31 33 32 32 30 28 25 26 28 26 24 22 23 21 16 14 17 17 19 18 10 13 13 12 12 11 12 11 12 10 12 11 9 4
31 31 30 28 29 26 31 30 32 32 30 30 30 29 28 24 30 31 28 23 23 22 19 18 17 16 16 15 16 16 15 15 11 11 12 12 13 14 15 12 12 12 6
31 30 28 28 26 26 32 31 30 30 30 29 30 29 28 24 31 33 31 22 21 19 18 18 19 18 17 15 13 14 12 11 12 12 11 11 11 14 18 13 14 9 9
30 28 28 26 18 28 29 30 30 29 28 28 29 30 28 24 35 34 29 22 19 18 17 17 17 16 16 18 13 13 11 7 12 11 8 8 8 11 18 14 15 13 8
26 27 31 29 23 32 28 26 28 28 28 27 27 28 28 29 37 35 26 22 20 19 16 14 16 13 15 17 13 10 12 10 11 9 8 10 8 13 16 14 19 13 7
27 28 31 31 40 30 23 25 26 27 26 24 24 24 25 33 39 36 26 21 21 19 16 13 13 15 14 15 14 10 10 11 11 12 11 9 10 14 17 10 15 21 15
26 27 36 47 33 22 27 25 25 26 26 26 26 23 22 28 36 33 26 15 16 16 15 13 12 16 14 15 14 11 10 13 12 12 13 13 13 13 13 10 9 7 5
25 27 32 25 18 18 23 24 24 25 25 24 25 22 20 20 22 27 23 19 18 11 11 13 13 15 14 14 14 11 11 13 13 12 13 13 12 13 16 11 8 10 4
27 26 14 4 11 17 18 22 24 23 23 24 23 21 21 22 21 19 18 18 17 13 14 14 15 15 14 13 14 13 12 12 13 12 13 15 13 12 12 12 11 11 8
20 21 17 9 14 16 16 17 21 24 31 28 25 25 26 24 23 24 23 19 19 17 17 15 14 16 15 14 15 12 12 12 14 14 14 15 14 12 11 11 11 12 10
18 10 3 15 17 19 19 22 21 26 27 27 26 26 20 23 28 26 25 21 20 22 15 14 13 17 17 16 12 11 10 10 11 11 11 11 10 11 10 9 8 10 8
13 6 13 18 19 19 20 22 17 25 29 28 24 25 24 24 28 27 24 20 19 16 11 13 13 16 17 16 13 11 11 10 11 10 11 11 10 10 12 10 10 8 8
14 9 14 18 17 21 21 21 22 21 19 18 22 21 25 30 28 26 23 22 17 8 11 13 14 16 17 15 14 10 11 11 11 10 10 10 10 10 10 10 10 8 9
15 11 19 18 21 22 23 23 23 23 22 20 20 26 26 26 23 22 21 15 13 10 11 12 17 16 16 14 12 9 11 11 10 10 9 9 9 9 9 7 9 8 9
21 21 18 18 25 24 23 21 21 22 22 22 21 19 24 23 17 17 11 13 12 11 14 14 16 14 16 15 14 11 10 11 11 11 10 10 9 9 9 10 9 8 9
21 25 24 24 25 23 22 21 22 23 21 21 22 22 22 18 17 15 14 14 13 12 17 17 13 15 15 12 14 12 12 11 10 9 9 9 8 8 8 7 8 8 8
22 27 26 24 24 22 22 23 24 23 22 22 19 18 16 16 16 16 14 12 12 12 15 16 13 13 12 15 15 14 11 10 9 9 8 8 9 9 8 8 8 9 9
24 23 24 23 22 23 21 22 21 22 24 22 21 21 13 16 15 14 14 15 17 17 18 17 16 16 10 8 9 9 9 9 10 9 8 8 8 7 6 7 8 10 9
25 24 22 22 23 22 21 20 20 22 25 23 23 16 17 16 15 17 17 18 17 17 17 16 16 15 13 10 9 12 12 10 7 7 6 6 6 7 7 9 10 10 9
25 24 22 22 20 20 23 22 22 23 23 22 22 22 18 17 18 20 20 21 18 18 17 16 15 13 13 12 10 11 10 11 7 8 8 7 9 7 6 7 7 8 9
24 22 20 21 21 22 22 23 23 25 25 24 23 20 19 18 17 21 21 20 18 18 19 17 15 14 12 10 9 10 10 10 8 7 8 8 10 11 12 13 14 16 15
Wind_Direction
300 297 296 295 290 283 272 262 250 239 231 219 214 204 196 193 196 197 202 195 190 193 199 199 201 198 217 217 222 229 234 238 247 144 186 197 203 201 221 215 239 223 230
292 285 293 290 294 286 277 267 253 239 229 219 214 200 195 193 193 197 196 187 192 197 193 192 198 194 214 219 220 227 229 226 243 209 150 196 203 191 200 186 192 200 213
296 289 280 287 293 287 276 264 251 238 228 217 211 200 196 193 194 199 189 187 200 197 193 191 192 198 204 216 223 216 220 222 220 246 167 192 186 194 155 160 164 144 165
293 289 280 282 286 284 281 258 244 233 224 215 208 200 195 191 193 189 184 195 194 191 190 188 194 200 207 212 216 217 220 217 220 230 187 186 190 194 190 177 159 154 138
291 288 281 281 285 281 279 252 237 228 218 209 197 193 190 187 186 184 188 191 186 186 185 183 193 201 206 209 212 213 210 213 219 222 196 196 189 189 193 182 166 158 143
291 285 278 280 285 277 283 241 227 217 208 196 191 185 180 184 185 183 185 184 182 182 175 176 188 193 200 206 213 211 217 223 230 233 207 210 196 202 194 182 173 162 170
287 281 277 281 280 278 288 230 218 207 196 191 184 177 177 179 180 178 177 180 180 178 174 183 192 196 195 206 215 218 221 222 227 242 238 223 196 196 189 191 180 180 180
277 276 278 277 271 287 281 219 207 195 188 183 175 172 173 172 178 181 174 173 171 172 185 190 196 192 197 204 206 212 220 221 224 228 232 223 217 190 188 187 181 164 131
276 276 281 280 289 281 262 207 195 186 183 179 172 167 166 167 176 175 169 168 168 181 187 190 194 196 199 198 206 209 214 193 213 204 201 197 210 198 181 162 160 163 158
279 281 282 277 286 264 233 190 182 179 172 167 165 166 166 162 169 167 163 169 172 175 180 179 186 197 199 199 202 202 206 187 183 185 201 195 193 181 188 186 184 164 139
285 284 282 283 256 241 177 175 171 166 151 149 149 152 159 159 164 166 167 177 177 183 181 183 185 191 194 192 194 194 198 174 176 175 174 170 171 180 188 194 194 184 188
280 277 269 256 224 183 163 152 149 143 135 134 128 129 138 151 161 168 174 181 172 182 183 182 187 189 190 186 180 186 182 167 159 161 165 165 171 180 184 194 189 188 207
275 272 289 332 128 141 144 142 138 145 138 138 137 125 127 142 158 168 171 167 166 181 176 173 179 174 180 179 184 182 173 167 166 162 163 173 184 185 181 185 187 211 214
283 292 297 304 124 139 141 141 140 140 143 143 133 134 139 153 156 157 156 157 160 149 152 151 158 159 156 165 167 169 173 176 172 173 170 174 158 159 171 182 184 179 186
298 300 300 156 140 128 126 142 147 151 149 145 143 149 160 160 165 165 160 162 167 162 148 145 149 158 153 152 154 166 171 170 182 173 168 168 170 172 182 186 190 186 200
295 289 159 110 117 120 113 98 138 139 142 145 154 159 157 160 163 161 157 163 167 156 150 159 157 160 154 155 163 167 156 167 159 162 161 163 160 165 171 181 193 207 215
279 262 134 132 131 126 115 113 106 102 131 131 138 144 149 157 155 157 160 163 160 151 169 165 159 162 160 166 163 169 159 161 162 162 161 160 162 171 172 189 200 207 195
266 215 138 131 122 122 120 122 128 133 121 103 125 136 145 146 153 157 157 150 154 175 165 163 162 164 166 167 169 172 141 154 159 158 162 165 171 175 183 197 199 198 204
201 172 135 142 136 139 140 140 141 139 126 118 117 127 139 144 149 149 151 158 160 158 157 159 161 164 168 165 171 162 159 155 157 159 164 165 159 174 195 210 215 203 193
174 169 157 134 134 138 135 135 139 133 135 137 133 129 134 132 138 150 159 163 160 159 160 158 167 167 175 174 164 159 157 161 166 172 175 177 180 187 201 195 212 202 210
165 165 163 154 145 135 137 141 143 145 146 139 139 146 150 151 150 157 157 158 157 160 168 168 168 170 174 164 160 162 169 176 175 186 184 186 188 195 203 212 208 223 235
154 160 159 150 138 140 142 149 148 146 141 135 136 150 149 139 144 136 133 136 141 148 164 162 157 165 168 174 170 172 172 174 174 179 182 180 193 199 199 206 221 233 230
152 154 139 138 143 134 141 145 146 146 137 137 140 144 141 122 120 117 108 114 123 132 156 156 164 159 151 153 155 154 162 174 172 176 179 184 199 205 210 219 237 258 223
138 128 134 133 143 138 137 136 137 135 139 138 138 126 114 116 110 115 116 122 125 126 135 147 152 164 168 147 145 151 163 163 171 175 185 193 210 225 239 254 247 249 235
129 131 131 127 127 125 125 129 130 133 129 124 115 112 114 112 114 123 122 123 119 123 122 126 131 140 155 160 162 174 174 177 164 176 193 201 207 196 158 139 127 110 111
127 121 124 125 127 127 124 121 119 118 113 110 112 117 117 113 115 124 125 121 111 111 114 114 117 125 130 140 159 175 188 193 189 189 164 149 135 121 114 105 98 92 86
Height
698 694 692 689 687 684 683 681 679 681 681 685 690 691 693 698 704 709 715 718 719 723 727 733 735 736 742 744 745 746 748 749 745 749 753 757 758 760 761 761 762 762 762
694 693 687 684 681 680 675 672 672 673 676 678 683 682 686 692 696 703 708 707 713 720 723 728 732 732 739 742 744 744 745 747 746 746 752 756 757 758 760 760 760 760 761
686 685 683 680 674 672 668 665 665 665 668 671 673 676 680 683 690 698 699 702 710 715 719 722 725 730 735 738 742 741 744 746 746 745 749 753 755 757 758 758 759 759 760
681 678 674 672 669 664 660 657 656 657 658 661 665 669 672 677 685 690 693 702 707 710 715 717 722 728 731 736 739 740 741 742 743 744 747 750 752 755 756 758 760 760 760
674 670 666 663 660 657 651 645 645 647 650 654 657 661 666 671 678 683 691 698 702 707 711 714 720 724 729 732 735 736 739 740 740 741 744 747 750 752 753 756 759 759 761
668 663 658 654 650 646 639 636 638 641 644 646 650 653 658 665 672 679 688 694 699 705 707 712 717 722 726 730 732 733 737 737 738 738 740 741 746 749 751 753 756 758 761
660 654 648 644 640 634 630 628 629 632 635 639 642 646 654 661 668 677 685 692 697 701 705 711 715 720 724 728 729 732 734 735 737 739 738 740 743 745 748 752 754 756 758
648 642 637 634 630 623 619 617 621 625 629 633 636 642 651 658 665 674 683 691 695 699 704 708 712 716 721 724 727 730 732 733 736 737 737 739 741 743 746 750 753 756 758
639 632 627 622 615 614 609 608 613 619 624 629 633 638 647 654 663 673 682 689 693 698 702 706 710 714 718 721 724 726 728 731 733 734 735 738 740 742 746 749 752 755 757
629 624 618 614 609 608 600 602 609 616 619 624 630 637 645 652 662 671 679 685 691 696 701 705 709 712 715 718 722 725 727 729 731 733 735 738 740 743 746 749 751 753 757
624 616 608 598 603 595 595 601 607 612 616 623 631 639 646 650 661 671 678 682 688 693 697 703 707 710 713 717 721 723 725 727 729 732 735 737 739 742 745 748 750 753 755
615 611 601 583 586 586 590 596 603 609 614 623 632 639 647 654 662 672 678 681 686 690 695 701 705 708 712 716 719 722 723 726 729 732 734 736 739 741 744 748 749 752 753
606 592 571 558 574 581 589 595 602 610 616 624 631 640 650 658 667 673 678 682 687 691 694 700 703 707 712 715 718 720 723 726 729 731 734 736 735 739 743 747 749 751 753
595 587 578 573 578 585 592 597 602 610 617 623 631 642 650 660 667 672 678 683 687 691 695 700 703 707 712 714 717 720 723 725 727 729 733 735 737 740 743 746 748 750 752
588 580 578 579 584 590 595 601 605 612 614 622 632 640 647 655 664 670 675 681 686 691 695 700 704 708 710 713 717 720 722 724 726 728 731 734 736 739 743 744 746 747 748
592 586 582 584 587 591 598 604 610 616 622 626 634 641 649 653 661 668 675 681 685 689 694 699 703 706 709 713 716 718 720 723 724 727 731 733 736 739 742 744 746 746 747
591 589 586 588 591 595 600 606 614 624 626 631 637 643 649 655 663 670 676 681 686 690 693 698 702 706 709 713 716 718 719 722 725 727 730 733 736 739 741 743 744 744 745
591 590 588 590 594 599 605 611 619 628 633 639 644 648 654 659 666 671 677 682 688 691 693 697 701 705 709 712 715 715 718 722 725 727 730 733 736 738 741 742 742 745 746
590 589 589 592 596 601 605 613 621 629 634 643 650 655 660 664 669 675 679 683 687 690 693 697 700 704 708 712 714 716 718 721 725 728 730 732 734 737 739 740 741 742 745
586 589 591 592 597 604 612 619 626 631 637 644 652 658 662 667 673 677 681 684 687 690 693 697 701 704 707 711 714 717 720 722 724 727 729 731 733 735 736 738 739 741 742
585 590 594 596 600 609 616 622 627 632 638 645 654 660 664 667 673 677 680 683 687 690 693 697 701 703 707 710 713 716 719 721 723 725 727 729 731 733 735 736 738 739 740
584 588 591 593 603 611 617 622 628 634 640 649 657 663 666 669 672 676 681 684 687 691 693 697 701 704 707 709 712 714 717 720 723 725 726 728 730 732 733 735 736 736 737
583 588 593 600 606 613 620 624 630 636 643 653 660 664 666 670 675 679 682 685 688 691 694 698 701 704 707 710 712 714 717 720 722 724 726 728 730 731 732 733 734 734 734
584 591 597 603 610 615 622 628 634 639 647 655 661 665 671 676 678 681 684 687 691 693 696 699 702 705 708 711 713 715 717 720 722 724 726 727 729 730 730 731 731 731 732
587 594 600 606 613 619 625 631 638 646 652 657 662 669 676 680 682 685 688 691 694 696 699 701 704 706 708 711 713 715 718 720 722 723 724 725 727 728 729 730 731 731 732
590 599 606 611 617 623 629 635 642 648 654 661 667 674 679 683 687 689 692 695 698 700 702 704 706 708 710 712 713 716 718 720 722 723 724 725 727 728 729 731 733 734 736